Tracking 18840 objects as of 18-November-2017
HD Live streaming from Space Station
objects crossing your sky now

FENGYUN 1C DEB

Track FENGYUN 1C DEB now!
10-day predictions


NORAD ID: 31147
Int'l Code: 1999-025BGZ
Perigee: 543.1 km
Apogee: 716.8 km
Inclination: 99.2 °
Period: 97.2 minutes
Semi major axis: 7000 km
RCS: 0.0156 m2 (small)
Launch date: May 10, 1999
Source: People's Republic of China (PRC)
Launch site: Taiyaun Space Center, China (TSC)

Note: This is SATELLITE DEBRIS
aabbcc
Your satellite tracking list
Your tracking list is empty




NASA's NSSDC Master Catalog

Two Line Element Set (TLE):
1 31147U 99025BGZ 17319.64890986  .00004055  00000-0  45503-3 0  9996
2 31147  99.1704  18.9483 0124033 277.4746 237.5917 14.82061226563034
Source of the keplerian elements: AFSPC